This is the latest recevied weather packets stored in our database for station/object KY0TEQ-13. If no packets are shown the sender has not sent any weather packets the latest 10 day(s).
| Time | Temp. | Humidity | Pressure | Rain* | Wind** | Luminosity | Snow |
|---|---|---|---|---|---|---|---|
| 1777742076 | 12.78° C | 25% | 1309.6 hPa | 0 mm | - | 703 W/m² | - |
| 1777741774 | 12.78° C | 25% | 1309.6 hPa | 0 mm | - | 696 W/m² | - |
| 1777741470 | 12.22° C | 29% | 1309.7 hPa | 0 mm | - | 685 W/m² | - |
| 1777741166 | 12.22° C | 28% | 1309.7 hPa | 0 mm | - | 677 W/m² | - |
| 1777740863 | 12.78° C | 28% | 1310 hPa | 0 mm | - | 669 W/m² | - |
| 1777740560 | 12.22° C | 26% | 1309.7 hPa | 0 mm | - | 660 W/m² | - |
| 1777740257 | 11.67° C | 34% | 1309.9 hPa | 0 mm | - | 649 W/m² | - |
| 1777739953 | 11.67° C | 32% | 1309.9 hPa | 0 mm | - | 640 W/m² | - |
| 1777739649 | 12.22° C | 30% | 1309.9 hPa | 0 mm | - | 628 W/m² | - |
| 1777739348 | 11.11° C | 29% | 1309.6 hPa | 0 mm | - | 617 W/m² | - |
| 1777739043 | 11.67° C | 31% | 1309.9 hPa | 0 mm | - | 605 W/m² | - |
| 1777738741 | 12.22° C | 32% | 1309.9 hPa | 0 mm | - | 593 W/m² | - |
| 1777738436 | 11.67° C | 33% | 1309.9 hPa | 0 mm | - | 581 W/m² | - |
| 1777738135 | 12.22° C | 34% | 1310 hPa | 0 mm | - | 567 W/m² | - |
| 1777737833 | 10.56° C | 34% | 1309.9 hPa | 0 mm | - | 552 W/m² | - |
| 1777737531 | 11.67° C | 32% | 1309.9 hPa | 0 mm | - | 540 W/m² | - |
| 1777737229 | 11.67° C | 33% | 1309.9 hPa | 0 mm | - | 527 W/m² | - |
| 1777736925 | 11.67° C | 30% | 1309.7 hPa | 0 mm | - | 511 W/m² | - |
| 1777736316 | 10.56° C | 39% | 1309.6 hPa | 0 mm | - | 484 W/m² | - |
| 1777736013 | 10.56° C | 38% | 1309.7 hPa | 0 mm | - | 469 W/m² | - |
| 1777735711 | 11.11° C | 40% | 1309.7 hPa | 0 mm | - | 452 W/m² | - |
| 1777735408 | 10.56° C | 39% | 1309.6 hPa | 0 mm | - | 436 W/m² | - |
| 1777735106 | 11.11° C | 36% | 1309.6 hPa | 0 mm | - | 417 W/m² | - |
| 1777734802 | 10.56° C | 36% | 1310 hPa | 0 mm | - | 403 W/m² | - |
| 1777734500 | 10° C | 39% | 1309.6 hPa | 0 mm | - | 381 W/m² | - |
* Rain latest hour (hover to see other rain measurements)
** Current wind speed in m/s (hover to see current wind gust speed)